Thedford, NE

8:09 AM CDT on June 23, 2017 (GMT -0500)
Thedford

Weather History for KTIF - December, 2012

Change the Weather History Date:

Tuesday, December 25, 2012

  Actual Average (KANW) Record (KANW)
Temperature  
Mean Temperature 8 °F -  
Max Temperature 13 °F 35 °F 55 °F (1999)
Min Temperature 3 °F 14 °F 0 °F (1996)
Degree Days  
Heating Degree Days 57    
Moisture  
Dew Point 2 °F    
Average Humidity 77    
Maximum Humidity 85    
Minimum Humidity 65    
Precipitation  
Precipitation 0.00 in - - ()
Sea Level Pressure  
Sea Level Pressure 30.29 in    
Wind  
Wind Speed 6 mph (North)    
Max Wind Speed 12 mph    
Max Gust Speed -    
Visibility 8 miles    
Events Snow    
Averages and records for this station are not official NWS values.
T = Trace of Precipitation, MM = Missing Value Source: NWS Daily Summary

Daily Weather History Graph

Daily Weather History Graph

Search for Another Location

Airport or City:

Trip Planner

Search our weather history database for the weather conditions in past years. The results will help you decide how hot, cold, wet, or windy it might be!

Date:

Astronomy

Dec. 25, 2012 Rise Set
Actual Time 8:08 AM CST 5:16 PM CST
Civil Twilight 7:37 AM CST 5:48 PM CST
Nautical Twilight 7:01 AM CST 6:23 PM CST
Astronomical Twilight 6:27 AM CST 6:57 PM CST
Moon 3:26 PM CST (12/25) 5:42 AM CST (12/25)
Length of Visible Light 10h 11m
Length of Day
9h 07m
Waxing Gibbous, 94% of the Moon is Illuminated
Dec 25
Waxing Gibbous
Dec 28
Full
Jan 4
Last Quarter
Jan 11
New
Jan 18
First Quarter

Hourly Weather History & Observations

Time (CST) Temp. Windchill Dew Point Humidity Pressure Visibility Wind Dir Wind Speed Gust Speed Precip Events Conditions
12:15 AM 9.0 °F -5.1 °F 4.3 °F 81% 30.19 in 3.0 mi NNE 10.4 mph - N/A Snow Light Snow
12:35 AM 8.4 °F -4.9 °F 3.7 °F 81% 30.19 in 3.0 mi North 9.2 mph - N/A Snow Light Snow
12:55 AM 8.2 °F -6.0 °F 3.4 °F 81% 30.19 in 2.5 mi NNE 10.4 mph - N/A Snow Light Snow
1:15 AM 8.1 °F -4.3 °F 3.2 °F 81% 30.20 in 3.0 mi North 8.1 mph - N/A Snow Light Snow
1:35 AM 7.7 °F -4.8 °F 3.2 °F 82% 30.20 in 2.5 mi North 8.1 mph - N/A Snow Light Snow
1:55 AM 7.7 °F -4.8 °F 3.0 °F 81% 30.21 in 4.0 mi North 8.1 mph - N/A Snow Light Snow
2:15 AM 7.5 °F -6.0 °F 2.3 °F 79% 30.22 in 10.0 mi North 9.2 mph - N/A   Overcast
2:35 AM 7.2 °F -5.4 °F 2.1 °F 80% 30.23 in 7.0 mi North 8.1 mph - N/A Snow Light Snow
2:55 AM 6.6 °F -8.0 °F 0.9 °F 77% 30.24 in 7.0 mi North 10.4 mph - N/A Snow Light Snow
3:15 AM 6.8 °F -3.5 °F 1.4 °F 79% 30.25 in 7.0 mi North 5.8 mph - N/A   Overcast
3:35 AM 6.8 °F -8.6 °F 1.8 °F 80% 30.25 in 5.0 mi North 11.5 mph - N/A Snow Light Snow
3:55 AM 6.3 °F -7.5 °F 0.7 °F 78% 30.26 in 5.0 mi North 9.2 mph - N/A Snow Light Snow
4:15 AM 5.9 °F -8.9 °F 0.9 °F 80% 30.27 in 3.0 mi North 10.4 mph - N/A Snow Light Snow
4:35 AM 5.7 °F -6.1 °F 0.5 °F 79% 30.28 in 4.0 mi North 6.9 mph - N/A Snow Light Snow
4:55 AM 5.9 °F -7.0 °F 0.7 °F 79% 30.28 in 5.0 mi North 8.1 mph - N/A Snow Light Snow
5:15 AM 5.7 °F -8.2 °F 0.7 °F 80% 30.28 in 3.0 mi North 9.2 mph - N/A Snow Light Snow
5:35 AM 5.5 °F -6.3 °F 0.5 °F 80% 30.29 in 5.0 mi NNW 6.9 mph - N/A Snow Light Snow
5:55 AM 5.9 °F -5.8 °F 0.5 °F 78% 30.30 in 7.0 mi NNW 6.9 mph - N/A Snow Light Snow
6:15 AM 5.9 °F -5.8 °F 0.5 °F 78% 30.30 in 7.0 mi North 6.9 mph - N/A Snow Light Snow
6:35 AM 5.9 °F -4.5 °F 0.7 °F 79% 30.31 in 5.0 mi North 5.8 mph - N/A Snow Light Snow
6:55 AM 5.7 °F -4.8 °F 0.5 °F 79% 30.31 in 7.0 mi North 5.8 mph - N/A Snow Light Snow
7:15 AM 5.7 °F -4.8 °F 0.3 °F 78% 30.33 in 7.0 mi North 5.8 mph - N/A Snow Light Snow
7:35 AM 5.9 °F -4.5 °F 0.5 °F 78% 30.33 in 5.0 mi North 5.8 mph - N/A Snow Light Snow
7:55 AM 5.7 °F -1.3 °F 0.5 °F 79% 30.34 in 4.0 mi North 3.5 mph - N/A Snow Light Snow
8:15 AM 5.4 °F -3.6 °F 0.1 °F 79% 30.34 in 4.0 mi North 4.6 mph - N/A Snow Light Snow
8:35 AM 5.2 °F -6.7 °F -0.2 °F 78% 30.34 in 7.0 mi North 6.9 mph - N/A   Overcast
8:55 AM 5.5 °F -3.4 °F 0.1 °F 78% 30.35 in 7.0 mi North 4.6 mph - N/A   Overcast
9:15 AM 5.4 °F -3.6 °F -0.4 °F 77% 30.36 in 7.0 mi North 4.6 mph - N/A   Overcast
9:35 AM 5.7 °F -4.8 °F -0.2 °F 77% 30.36 in 5.0 mi North 5.8 mph - N/A   Haze
9:55 AM 5.9 °F -4.5 °F 0.3 °F 78% 30.37 in 10.0 mi North 5.8 mph - N/A   Overcast
10:15 AM 6.4 °F -3.9 °F 0.5 °F 77% 30.38 in 10.0 mi North 5.8 mph - N/A   Overcast
10:35 AM 6.6 °F -5.0 °F 0.7 °F 77% 30.38 in 10.0 mi North 6.9 mph - N/A   Overcast
10:55 AM 6.8 °F -4.8 °F 0.5 °F 75% 30.39 in 10.0 mi North 6.9 mph - N/A   Overcast
11:15 AM 7.7 °F -2.4 °F 1.4 °F 75% 30.39 in 7.0 mi North 5.8 mph - N/A   Overcast
11:35 AM 8.4 °F -1.6 °F 1.9 °F 75% 30.39 in 7.0 mi North 5.8 mph - N/A   Overcast
11:55 AM 9.1 °F -0.7 °F 2.5 °F 74% 30.38 in 7.0 mi North 5.8 mph - N/A   Overcast
12:15 PM 9.7 °F -1.3 °F 2.5 °F 73% 30.36 in 7.0 mi North 6.9 mph - N/A   Overcast
12:35 PM 10.2 °F 0.6 °F 2.7 °F 72% 30.35 in 7.0 mi North 5.8 mph - N/A   Overcast
12:55 PM 10.8 °F 4.5 °F 2.8 °F 70% 30.35 in 10.0 mi North 3.5 mph - N/A   Overcast
1:15 PM 11.5 °F 3.5 °F 3.4 °F 70% 30.34 in 10.0 mi NNW 4.6 mph - N/A   Overcast
1:35 PM 11.5 °F 2.1 °F 3.6 °F 71% 30.33 in 7.0 mi North 5.8 mph - N/A   Overcast
1:55 PM 11.3 °F 3.3 °F 3.2 °F 70% 30.31 in 10.0 mi North 4.6 mph - N/A   Mostly Cloudy
2:15 PM 11.5 °F 3.5 °F 3.2 °F 69% 30.31 in 10.0 mi North 4.6 mph - N/A   Scattered Clouds
2:35 PM 12.2 °F 6.1 °F 3.2 °F 67% 30.31 in 10.0 mi NNW 3.5 mph - N/A   Scattered Clouds
2:55 PM 12.6 °F - 3.6 °F 67% 30.31 in 10.0 mi Calm Calm - N/A   Clear
3:15 PM 12.7 °F - 3.4 °F 66% 30.31 in 10.0 mi Calm Calm - N/A   Clear
3:35 PM 13.1 °F - 3.6 °F 66% 30.33 in 10.0 mi Calm Calm - N/A   Clear
3:55 PM 13.1 °F - 3.2 °F 65% 30.33 in 10.0 mi Calm Calm - N/A   Clear
4:15 PM 12.2 °F - 3.2 °F 67% 30.31 in 10.0 mi Calm Calm - N/A   Scattered Clouds
4:55 PM 11.1 °F - 3.2 °F 70% 30.31 in 10.0 mi Calm Calm - N/A   Overcast
5:15 PM 11.3 °F - 3.7 °F 72% 30.31 in 10.0 mi Calm Calm - N/A   Mostly Cloudy
5:35 PM 10.9 °F - 3.9 °F 73% 30.30 in 10.0 mi Calm Calm - N/A   Overcast
5:55 PM 11.3 °F - 4.1 °F 73% 30.30 in 10.0 mi Calm Calm - N/A   Overcast
6:35 PM 11.3 °F - 4.6 °F 75% 30.30 in 10.0 mi Calm Calm - N/A   Overcast
6:55 PM 11.7 °F - 5.0 °F 75% 30.29 in 10.0 mi Calm Calm - N/A   Overcast
7:15 PM 10.8 °F - 5.0 °F 78% 30.29 in 10.0 mi Calm Calm - N/A   Overcast
7:35 PM 10.4 °F - 4.3 °F 76% 30.29 in 10.0 mi Calm Calm - N/A   Overcast
7:55 PM 9.7 °F - 4.5 °F 79% 30.29 in 10.0 mi Calm Calm - N/A   Overcast
8:15 PM 9.5 °F - 4.5 °F 80% 30.28 in 10.0 mi Calm Calm - N/A   Mostly Cloudy
8:35 PM 7.0 °F - 2.8 °F 83% 30.27 in 10.0 mi Calm Calm - N/A   Mostly Cloudy
8:55 PM 6.6 °F - 2.3 °F 82% 30.25 in 10.0 mi Calm Calm - N/A   Mostly Cloudy
9:15 PM 5.9 °F - 1.8 °F 83% 30.25 in 10.0 mi Calm Calm - N/A   Scattered Clouds
10:15 PM 3.4 °F - -0.2 °F 85% 30.23 in 10.0 mi Calm Calm - N/A   Overcast
10:35 PM 3.0 °F - -0.8 °F 84% 30.23 in 10.0 mi Calm Calm - N/A   Overcast
10:55 PM 4.8 °F - 0.9 °F 84% 30.23 in 10.0 mi Calm Calm - N/A   Overcast
11:15 PM 7.2 °F - 3.4 °F 85% 30.22 in 10.0 mi Calm Calm - N/A Snow Light Snow
11:35 PM 7.9 °F - 3.9 °F 84% 30.21 in 7.0 mi Calm Calm - N/A Snow Light Snow
11:55 PM 7.5 °F - 3.7 °F 85% 30.21 in 7.0 mi Calm Calm - N/A Snow Light Snow